Simultaneous Nadir Overpasses (SNOs) Predictions

Prediction of SNOs between GOES-14 and AQUA Satellite Orbit:

Table of predicted SNOs for the next 14.0 days since TLE Epoch: 4/1/2023
Index Date Time (GOES-14) GOES-14 Lat,Lon AQUA Lat,Lon Distance(km) Time Diff (sec)
1 04/01/2023 08:51:27 0.16,-108.04 -0.17,-106.59 164.62 80
2 04/01/2023 21:12:26 -0.16,-108.05 -0.96,-111.67 412.90 80
3 04/03/2023 20:58:43 -0.17,-108.07 -0.21,-108.34 30.43 80
4 04/05/2023 20:47:38 -0.17,-108.08 0.49,-104.98 352.54 80
5 04/06/2023 09:08:29 0.17,-108.08 0.59,-110.03 221.69 80
6 04/08/2023 08:52:03 0.17,-108.09 -0.14,-106.68 161.14 80
7 04/08/2023 21:13:03 -0.16,-108.09 -0.92,-111.77 417.62 80
8 04/10/2023 20:59:15 -0.17,-108.10 -0.23,-108.40 34.37 80
9 04/12/2023 20:48:06 -0.17,-108.10 0.47,-105.03 348.91 80
10 04/13/2023 09:08:56 0.17,-108.11 0.61,-110.07 223.84 80
